Regional Weather Roundup
Issued by NWS State College, PA

Home | Current Version | Previous Version | Graphics & Text | Print | Product List | Glossary On
Versions: 1 2 3 4 5 6 7 8 9 10 11 12 13 14 15 16 17 18 19 20 21 22 23 24 25 26 27 28 29 30 31 32 33 34 35 36 37 38 39 40 41 42 43 44 45 46 47 48 49 50
000
ASUS41 KCTP 312203
RWRCTP

REGIONAL WEATHER ROUNDUP
NATIONAL WEATHER SERVICE STATE COLLEGE PA
600 PM EDT FRI JUL 31 2015

Note: "fair" indicates few or no clouds below 12,000 feet with no
significant weather and/or obstructions to visibility.

* = STATION THAT DOES NOT REPORT PRECIPITATION /E.G. RAIN...SNOW...ETC/
    THUNDER OR FOG.

PAZ002>004-007>009-013>016-020>023-029>032-312300-
WESTERN PENNSYLVANIA

CITY           SKY/WX    TMP DP  RH WIND       PRES   REMARKS
ERIE           SUNNY     83  55  38 W18G26    29.84F
MEADVILLE      SUNNY     82  50  32 W10       29.89F
FRANKLIN*      MOSUNNY   81  55  41 W10G16    29.92F
NEW CASTLE     FAIR      83  58  42 W10G16    29.90F
BEAVER COUNTY  MOSUNNY   84  55  37 W9G16     29.91F
BUTLER*        MOSUNNY   82  57  42 W12G17    29.92F
PITTSBURGH INT MOSUNNY   83  59  44 W8        29.91F
PITTSBURGH     PTSUNNY   81  52  36 W15G26    29.91F
INDIANA*       MOSUNNY   82  59  44 W9G17     29.94F
LATROBE        PTSUNNY   82  57  42 W12G21    29.92F
WASHINGTON CO* NOT AVBL
$$

PAZ004>006-010>012-017>019-024>028-033>037-041-042-045-046-049>053-312300-
CENTRAL PENNSYLVANIA

CITY           SKY/WX    TMP DP  RH WIND       PRES   REMARKS
BRADFORD       MOSUNNY   78  56  46 VRB7      29.91F
DUBOIS         MOSUNNY   82  55  39 W13       29.90F
CLEARFIELD     SUNNY     82  56  40 W9        29.90F
JOHNSTOWN      PTSUNNY   78  54  43 W12G22    29.96F
ALTOONA        PTSUNNY   81  60  48 W6        29.92F
STATE COLLEGE  SUNNY     81  61  50 W13       29.89F
WILLIAMSPORT   MOSUNNY   92  57  30 SW13      29.82F
SELINSGROVE    MOSUNNY   84  62  47 SW6       29.85F
FT INDIANTOWN  SUNNY     85  60  41 W8        29.85F
CAPITAL CITY   MOSUNNY   87  57  35 SW13      29.84F
HARRISBURG     MOSUNNY   87  60  40 W7        29.84F
YORK           SUNNY     84  63  49 SW3       29.86F
$$

PAZ038>040-043-044-047-048-054-055-060>062-067>071-312300-
EASTERN PENNSYLVANIA

CITY           SKY/WX    TMP DP  RH WIND       PRES   REMARKS
SCRANTON       SUNNY     83  57  41 W7        29.85F
MOUNT POCONO   SUNNY     78  55  44 W9        29.91F
ALLENTOWN      SUNNY     85  58  39 W9        29.83F
QUAKERTOWN*    CLEAR     84  59  42 W5        29.86S
READING        SUNNY     86  58  38 W9        29.84F
LANCASTER      SUNNY     85  57  38 W10       29.85F
COATESVILLE    CLEAR     82  59  44 NW8       29.88F
POTTSTOWN      SUNNY     84  57  39 VRB3      29.86F
BLUE BELL      SUNNY     86  59  39 W6        29.84S
DOYLESTOWN     SUNNY     86  55  34 NW8       29.83F
WILLOW GROVE   NOT AVBL
NORTH PHILA    MOSUNNY   89  53  29 W12       29.84S
PHILADELPHIA   MOSUNNY   89  54  30 NW8       29.83F
$$



USA.gov is the U.S. government's official web portal to all federal, state and local government web resources and services.